Volver al catálogo

STARLINK-5220

ActivoComunicacionesVLEO
NORAD 54760·PAYLOAD·🇺🇸 United States

Lanzado Dec 17, 2022 desde Cape Canaveral Space Force Station

Loading…

Próximos Pases (próximas 24 horas)

TLE

ActualizadoSource: CelesTrak SupGP

Época: Sep 14, 2026, 20:56 UTC

1 54760C 22175C   26257.87270833  .00041372  00000+0  11834-2 0  2571
2 54760  53.1589 270.8247 0001245  89.6531  56.5709 15.35384663    16

Sigue STARLINK-5220 en tiempo real con AllMySat

Download on the App Store